Location: Newark
(42.8481°N, 0.4872°E)
Time: 09:38:01
(UTC+00:00)

Vanguard 1 - Pass Details

Date: 03 November 2020
Orbit: 650 x 3833 km, 34.2° (Epoch: 26 November)

Event Time Altitude Azimuth Distance (km) Brightness Sun altitude
Rises 08:57:17 0° 202° (SSW) 5,991 14.4 20.7°
Reaches altitude 10° 09:01:22 10° 193° (SSW) 5,396 14.4 21.2°
Maximum altitude 09:16:03 33° 137° (SE) 4,808 15.9 23.0°
Drops below altitude 10° 09:34:49 10° 84° (E) 6,934 14.8 25.0°
Sets 09:40:57 0° 76° (ENE) 7,864 14.9 25.6°
